When you browse on this site, cookies collect data to enhance your experience and personalize the content and advertising you see.
Visit our Privacy Policy to learn more. By continuing to use the site, you agree to this use of cookies and data.
  • In Hungary
  • List of Countries
  • For 7 days
  • Water Temperature
  • Satellite Maps
  • Weather Map
  • News
  • Weather Widgets
  • user-avatar
    Login

    Hourly Weather Shishelovo

    Today, 20 May, Monday

    Time Temperature Precipitation Wind Pressure Humidity
    00:00 +15°C° 0 mm 2 mps 757 mmHg 78%
    01:00 +15°C° 0 mm 2 mps 757 mmHg 81%
    02:00 +15°C° 0 mm 2 mps 757 mmHg 85%
    03:00 +15°C° 0 mm 2 mps 757 mmHg 85%
    04:00 +15°C° 0 mm 2 mps 757 mmHg 85%
    05:00 +15°C° 0 mm 2 mps 757 mmHg 85%
    06:00 +17°C° 0 mm 2 mps 757 mmHg 79%
    07:00 +19°C° 0 mm 2 mps 757 mmHg 72%
    08:00 +21°C° 0 mm 3 mps 757 mmHg 66%
    09:00 +22°C° 0 mm 3 mps 757 mmHg 60%
    10:00 +25°C° 0 mm 4 mps 757 mmHg 54%
    11:00 +27°C° 0 mm 4 mps 757 mmHg 47%
    12:00 +27°C° 0 mm 4 mps 757 mmHg 46%
    13:00 +27°C° 0 mm 4 mps 757 mmHg 45%
    14:00 +28°C° 0 mm 4 mps 756 mmHg 43%
    15:00 +27°C° 0 mm 4 mps 756 mmHg 45%
    16:00 +27°C° 0 mm 3 mps 756 mmHg 47%
    17:00 +27°C° 0 mm 3 mps 756 mmHg 49%
    18:00 +25°C° 0 mm 3 mps 756 mmHg 56%
    19:00 +22°C° 0 mm 3 mps 756 mmHg 63%
    20:00 +19°C° 0 mm 3 mps 756 mmHg 71%
    21:00 +19°C° 0 mm 3 mps 756 mmHg 73%
    22:00 +18°C° 0 mm 3 mps 756 mmHg 74%
    23:00 +17°C° 0 mm 3 mps 756 mmHg 76%

    Tomorrow, 21 May, Tuesday

    Time Temperature Precipitation Wind Pressure Humidity
    00:00 +17°C° 0 mm 3 mps 756 mmHg 78%
    01:00 +16°C° 0 mm 3 mps 756 mmHg 80%
    02:00 +16°C° 0 mm 3 mps 756 mmHg 82%
    03:00 +16°C° 0 mm 3 mps 756 mmHg 81%
    04:00 +17°C° 0 mm 3 mps 756 mmHg 80%
    05:00 +17°C° 0 mm 3 mps 756 mmHg 79%
    06:00 +18°C° 0 mm 3 mps 756 mmHg 75%
    07:00 +19°C° 0 mm 3 mps 755 mmHg 71%
    08:00 +20°C° 0 mm 3 mps 755 mmHg 67%
    09:00 +21°C° 0 mm 3 mps 755 mmHg 63%
    10:00 +23°C° 0 mm 4 mps 755 mmHg 58%
    11:00 +25°C° 0 mm 4 mps 755 mmHg 53%
    12:00 +26°C° 0 mm 4 mps 754 mmHg 52%
    13:00 +27°C° 0 mm 4 mps 754 mmHg 51%
    14:00 +27°C° 0 mm 3 mps 754 mmHg 50%
    15:00 +27°C° 0 mm 3 mps 753 mmHg 54%
    16:00 +26°C° 0 mm 3 mps 753 mmHg 59%
    17:00 +26°C° 0 mm 2 mps 752 mmHg 63%
    18:00 +24°C° 0 mm 2 mps 752 mmHg 68%
    19:00 +23°C° 0 mm 2 mps 752 mmHg 74%
    20:00 +21°C° 0 mm 2 mps 752 mmHg 79%
    21:00 +20°C° 0 mm 2 mps 752 mmHg 83%
    22:00 +18°C° 0 mm 2 mps 752 mmHg 86%
    23:00 +17°C° 0 mm 2 mps 752 mmHg 90%

    Day after tomorrow, 22 May, Wednesday

    Time Temperature Precipitation Wind Pressure Humidity
    00:00 +17°C° 0 mm 2 mps 752 mmHg 91%
    01:00 +16°C° 0 mm 2 mps 752 mmHg 93%
    02:00 +16°C° 0 mm 2 mps 752 mmHg 94%
    03:00 +16°C° 0 mm 2 mps 752 mmHg 94%
    04:00 +16°C° 0 mm 2 mps 752 mmHg 94%
    05:00 +16°C° 0 mm 2 mps 752 mmHg 93%
    06:00 +18°C° 0 mm 2 mps 752 mmHg 87%
    07:00 +19°C° 0 mm 2 mps 752 mmHg 80%
    08:00 +21°C° 0 mm 2 mps 752 mmHg 74%
    09:00 +23°C° 0 mm 2 mps 751 mmHg 68%
    10:00 +25°C° 0 mm 2 mps 751 mmHg 63%
    11:00 +26°C° 0 mm 3 mps 751 mmHg 58%
    12:00 +26°C° 0 mm 2 mps 751 mmHg 56%
    13:00 +27°C° 0 mm 2 mps 750 mmHg 54%
    14:00 +27°C° 0 mm 2 mps 750 mmHg 53%
    15:00 +27°C° 0 mm 2 mps 750 mmHg 54%
    16:00 +27°C° 0 mm 2 mps 750 mmHg 55%
    17:00 +27°C° 0 mm 2 mps 749 mmHg 55%
    18:00 +25°C° 0.7 mm 2 mps 749 mmHg 65%
    19:00 +23°C° 0.7 mm 2 mps 749 mmHg 75%
    20:00 +20°C° 0.7 mm 2 mps 749 mmHg 85%
    21:00 +19°C° 0 mm 2 mps 749 mmHg 87%
    22:00 +18°C° 0 mm 2 mps 749 mmHg 90%
    23:00 +17°C° 0 mm 2 mps 749 mmHg 93%

    23 May, Thursday

    Time Temperature Precipitation Wind Pressure Humidity
    00:00 +17°C° 0 mm 2 mps 749 mmHg 94%
    01:00 +17°C° 0 mm 2 mps 749 mmHg 95%
    02:00 +16°C° 0 mm 2 mps 749 mmHg 96%
    03:00 +16°C° 0 mm 2 mps 749 mmHg 96%
    04:00 +16°C° 0 mm 2 mps 749 mmHg 96%
    05:00 +17°C° 0 mm 2 mps 749 mmHg 96%
    06:00 +18°C° 0.9 mm 2 mps 749 mmHg 92%
    07:00 +19°C° 0.9 mm 2 mps 749 mmHg 88%
    08:00 +21°C° 0.9 mm 2 mps 749 mmHg 84%
    09:00 +21°C° 1.4 mm 2 mps 749 mmHg 80%
    10:00 +23°C° 1.4 mm 2 mps 749 mmHg 77%
    11:00 +24°C° 1.4 mm 2 mps 749 mmHg 73%
    12:00 +24°C° 0.5 mm 2 mps 749 mmHg 71%
    13:00 +24°C° 0.5 mm 2 mps 749 mmHg 68%
    14:00 +25°C° 0.5 mm 2 mps 749 mmHg 66%
    15:00 +24°C° 0.5 mm 2 mps 749 mmHg 70%
    16:00 +24°C° 0.5 mm 2 mps 749 mmHg 75%
    17:00 +23°C° 0.5 mm 2 mps 749 mmHg 79%
    18:00 +21°C° 0.2 mm 2 mps 749 mmHg 83%
    19:00 +19°C° 0.2 mm 2 mps 749 mmHg 87%
    20:00 +18°C° 0.2 mm 2 mps 749 mmHg 91%
    21:00 +18°C° 0 mm 1 mps 749 mmHg 92%
    22:00 +16°C° 0 mm 1 mps 749 mmHg 93%
    23:00 +16°C° 0 mm 1 mps 749 mmHg 94%

    24 May, Friday

    Time Temperature Precipitation Wind Pressure Humidity
    00:00 +15°C° 0 mm 1 mps 749 mmHg 94%
    01:00 +15°C° 0 mm 1 mps 749 mmHg 94%
    02:00 +15°C° 0 mm 1 mps 749 mmHg 94%
    03:00 +15°C° 0.2 mm 1 mps 749 mmHg 95%
    04:00 +15°C° 0.2 mm 1 mps 749 mmHg 96%
    05:00 +15°C° 0.2 mm 2 mps 749 mmHg 97%
    06:00 +15°C° 0 mm 2 mps 749 mmHg 96%
    07:00 +16°C° 0 mm 2 mps 749 mmHg 94%
    08:00 +16°C° 0 mm 2 mps 749 mmHg 92%
    09:00 +17°C° 0 mm 2 mps 749 mmHg 91%
    10:00 +17°C° 0 mm 3 mps 749 mmHg 89%
    11:00 +17°C° 0 mm 3 mps 749 mmHg 88%
    12:00 +17°C° 0 mm 3 mps 749 mmHg 86%
    13:00 +17°C° 0 mm 3 mps 749 mmHg 83%
    14:00 +17°C° 0 mm 3 mps 749 mmHg 81%
    15:00 +18°C° 0 mm 3 mps 749 mmHg 77%
    16:00 +18°C° 0 mm 2 mps 749 mmHg 73%
    17:00 +19°C° 0 mm 2 mps 749 mmHg 70%
    18:00 +18°C° 0 mm 2 mps 749 mmHg 75%
    19:00 +17°C° 0 mm 2 mps 749 mmHg 80%
    20:00 +16°C° 0 mm 2 mps 749 mmHg 85%
    21:00 +15°C° 0 mm 2 mps 749 mmHg 88%
    22:00 +13°C° 0 mm 2 mps 749 mmHg 91%
    23:00 +12°C° 0 mm 2 mps 750 mmHg 94%

    25 May, Saturday

    Time Temperature Precipitation Wind Pressure Humidity
    00:00 +10°C° 0 mm 2 mps 750 mmHg 94%
    01:00 +10°C° 0 mm 2 mps 750 mmHg 95%
    02:00 +9°C° 0 mm 2 mps 750 mmHg 95%
    03:00 +8°C° 0 mm 2 mps 750 mmHg 94%
    04:00 +8°C° 0 mm 2 mps 750 mmHg 93%
    05:00 +8°C° 0 mm 2 mps 750 mmHg 92%
    06:00 +9°C° 0 mm 3 mps 750 mmHg 88%
    07:00 +10°C° 0 mm 3 mps 750 mmHg 84%
    08:00 +11°C° 0 mm 3 mps 750 mmHg 81%
    09:00 +12°C° 0 mm 3 mps 750 mmHg 77%
    10:00 +13°C° 0 mm 3 mps 750 mmHg 74%
    11:00 +14°C° 0 mm 3 mps 750 mmHg 70%
    12:00 +16°C° 0 mm 3 mps 750 mmHg 69%
    13:00 +16°C° 0 mm 3 mps 750 mmHg 68%
    14:00 +17°C° 0 mm 4 mps 750 mmHg 67%
    15:00 +17°C° 0 mm 4 mps 750 mmHg 68%
    16:00 +15°C° 0 mm 4 mps 750 mmHg 69%
    17:00 +15°C° 0 mm 4 mps 750 mmHg 70%
    18:00 +14°C° 0 mm 3 mps 750 mmHg 75%
    19:00 +14°C° 0 mm 2 mps 750 mmHg 80%
    20:00 +13°C° 0 mm 2 mps 750 mmHg 86%
    21:00 +12°C° 0 mm 2 mps 750 mmHg 89%
    22:00 +10°C° 0 mm 2 mps 750 mmHg 92%
    23:00 +9°C° 0 mm 2 mps 750 mmHg 96%
    Show more